Weather History for Watford City, ND

Change the Weather History Date:

Wednesday, December 14, 2011

  Actual Average (KISN) Record (KISN)
Temperature  
Mean Temperature 24 °F 14 °F  
Max Temperature 26 °F 24 °F 53 °F (1998)
Min Temperature 21 °F 3 °F -28 °F (1963)
Degree Days  
Heating Degree Days 42 51  
Month to date heating degree days 683  
Since 1 July heating degree days 2845  
Cooling Degree Days 0 0  
Month to date cooling degree days 0  
Year to date cooling degree days 456  
Moisture  
Dew Point 20 °F    
Average Humidity 89    
Maximum Humidity 100    
Minimum Humidity 74    
Precipitation  
Precipitation 0.00 in 0.02 in 0.27 in (1948)
Month to date precipitation 0.26  
Year to date precipitation 14.01  
Sea Level Pressure  
Sea Level Pressure 29.79 in    
Wind  
Wind Speed 9 mph (WSW)    
Max Wind Speed 23 mph    
Max Gust Speed 31 mph    
Visibility 8 miles    
Events      
T = Trace of Precipitation, MM = Missing Value Source: NWS Daily Summary

Daily Weather History Graph

Daily Weather History Graph

Search for Another Location

Airport:

Trip Planner

Search our weather history database for the weather conditions in past years. The results will help you decide how hot, cold, wet, or windy it might be!

Date:

Astronomy

Dec. 14, 2011 Rise Set
Actual Time 8:34 AM CST 5:00 PM CST
Civil Twilight 7:58 AM CST 5:36 PM CST
Nautical Twilight 7:18 AM CST 6:16 PM CST
Astronomical Twilight 6:41 AM CST 6:54 PM CST
Moon 9:37 PM CST (12/14) 11:07 AM CST (12/14)
Length of Visible Light 9h 38m
Length of Day
8h 26m
Waning Gibbous, 83% of the Moon is Illuminated
Dec 14
Waning Gibbous
Dec 17
Last Quarter
Dec 24
New
Jan 1
First Quarter
Jan 9
Full

Hourly Weather History & Observations

Time (CST) Temp. Windchill Dew Point Humidity Pressure Visibility Wind Dir Wind Speed Gust Speed Precip Events Conditions
12:15 AM 21.2 °F 12.6 °F 19.4 °F 93% 29.82 in 9.0 mi SSW 6.9 mph - N/A   Overcast
12:35 AM 21.2 °F 11.7 °F 19.4 °F 93% 29.82 in 9.0 mi SSW 8.1 mph - N/A   Overcast
12:55 AM 21.2 °F 13.6 °F 19.4 °F 93% 29.82 in 8.0 mi SSW 5.8 mph - N/A   Overcast
1:15 AM 21.2 °F 13.6 °F 19.4 °F 93% 29.81 in 8.0 mi South 5.8 mph - N/A   Overcast
1:35 AM 21.2 °F 13.6 °F 19.4 °F 93% 29.81 in 8.0 mi SW 5.8 mph - N/A   Overcast
1:55 AM 21.2 °F 13.6 °F 19.4 °F 93% 29.80 in 8.0 mi WSW 5.8 mph - N/A   Overcast
2:15 AM 21.2 °F 13.6 °F 19.4 °F 93% 29.79 in 9.0 mi SW 5.8 mph - N/A   Overcast
2:35 AM 21.2 °F 12.6 °F 19.4 °F 93% 29.79 in 8.0 mi SSW 6.9 mph - N/A   Overcast
2:55 AM 21.2 °F 13.6 °F 19.4 °F 93% 29.79 in 10.0 mi SSW 5.8 mph - N/A   Overcast
3:15 AM 21.2 °F 13.6 °F 19.4 °F 93% 29.79 in 9.0 mi WSW 5.8 mph - N/A   Overcast
3:35 AM 21.2 °F 13.6 °F 19.4 °F 93% 29.78 in 10.0 mi SSW 5.8 mph - N/A   Overcast
3:55 AM 21.2 °F 13.6 °F 19.4 °F 93% 29.77 in 10.0 mi SSW 5.8 mph - N/A   Overcast
4:15 AM 21.2 °F 10.9 °F 19.4 °F 93% 29.77 in 10.0 mi SW 9.2 mph - N/A   Overcast
4:35 AM 21.2 °F 14.9 °F 19.4 °F 93% 29.77 in 9.0 mi SW 4.6 mph - N/A   Overcast
4:55 AM 21.2 °F 11.7 °F 19.4 °F 93% 29.76 in 9.0 mi SW 8.1 mph - N/A   Overcast
5:15 AM 21.2 °F 14.9 °F 19.4 °F 93% 29.75 in 8.0 mi SSW 4.6 mph - N/A   Overcast
5:35 AM 21.2 °F 12.6 °F 19.4 °F 93% 29.74 in 8.0 mi SW 6.9 mph - N/A   Overcast
6:15 AM 21.2 °F 12.6 °F 19.4 °F 93% 29.73 in 7.0 mi WSW 6.9 mph - N/A   Overcast
6:35 AM 21.2 °F 13.6 °F 19.4 °F 93% 29.74 in 7.0 mi SW 5.8 mph - N/A   Overcast
6:55 AM 21.2 °F 12.6 °F 19.4 °F 93% 29.73 in 9.0 mi SW 6.9 mph - N/A   Overcast
7:35 AM 21.2 °F 13.6 °F 19.4 °F 93% 29.73 in 8.0 mi SW 5.8 mph - N/A   Overcast
7:55 AM 21.2 °F 12.6 °F 19.4 °F 93% 29.73 in 8.0 mi SSW 6.9 mph - N/A   Overcast
8:15 AM 21.2 °F 12.6 °F 19.4 °F 93% 29.73 in 7.0 mi SW 6.9 mph - N/A   Overcast
8:35 AM 21.2 °F 11.7 °F 19.4 °F 93% 29.73 in 6.0 mi SW 8.1 mph - N/A   Overcast
8:55 AM 21.2 °F 10.9 °F 19.4 °F 93% 29.74 in 6.0 mi WSW 9.2 mph - N/A   Overcast
9:15 AM 21.2 °F 14.9 °F 21.2 °F 100% 29.73 in 5.0 mi WSW 4.6 mph - N/A   Overcast
9:35 AM 23.0 °F 14.7 °F 21.2 °F 93% 29.74 in 5.0 mi West 6.9 mph - N/A   Overcast
9:55 AM 21.2 °F 9.5 °F 19.4 °F 93% 29.74 in 5.0 mi WSW 11.5 mph - N/A   Overcast
10:15 AM 21.2 °F 10.1 °F 21.2 °F 100% 29.74 in 5.0 mi WSW 10.4 mph - N/A   Overcast
10:35 AM 21.2 °F 10.9 °F 19.4 °F 93% 29.74 in 5.0 mi WSW 9.2 mph - N/A   Overcast
10:55 AM 21.2 °F 10.1 °F 21.2 °F 100% 29.74 in 5.0 mi WSW 10.4 mph - N/A   Overcast
11:15 AM 23.0 °F 13.1 °F 21.2 °F 93% 29.75 in 5.0 mi WSW 9.2 mph - N/A   Overcast
11:35 AM 23.0 °F 12.4 °F 21.2 °F 93% 29.75 in 6.0 mi West 10.4 mph - N/A   Overcast
11:55 AM 23.0 °F 10.6 °F 21.2 °F 93% 29.75 in 6.0 mi West 13.8 mph - N/A   Overcast
12:15 PM 23.0 °F 12.4 °F 21.2 °F 93% 29.74 in 8.0 mi WNW 10.4 mph - N/A   Overcast
12:35 PM 23.0 °F 11.1 °F 19.4 °F 86% 29.74 in 7.0 mi WNW 12.7 mph - N/A   Overcast
12:55 PM 23.0 °F 12.4 °F 19.4 °F 86% 29.73 in 8.0 mi WNW 10.4 mph - N/A   Overcast
1:15 PM 23.0 °F 13.1 °F 21.2 °F 93% 29.73 in 8.0 mi West 9.2 mph - N/A   Overcast
1:35 PM 23.0 °F 10.1 °F 19.4 °F 86% 29.75 in 10.0 mi West 15.0 mph - N/A   Overcast
1:55 PM 23.0 °F 10.6 °F 19.4 °F 86% 29.76 in 10.0 mi West 13.8 mph 19.6 mph N/A   Overcast
2:15 PM 23.0 °F 12.4 °F 19.4 °F 86% 29.75 in 9.0 mi WNW 10.4 mph 20.7 mph N/A   Overcast
2:35 PM 23.0 °F 13.1 °F 19.4 °F 86% 29.76 in 9.0 mi WNW 9.2 mph 17.3 mph N/A   Overcast
2:55 PM 23.0 °F 10.1 °F 19.4 °F 86% 29.77 in 10.0 mi WNW 15.0 mph 23.0 mph N/A   Overcast
3:15 PM 24.8 °F 12.9 °F 21.2 °F 86% 29.78 in 10.0 mi WNW 13.8 mph 19.6 mph N/A   Overcast
3:35 PM 24.8 °F 13.4 °F 21.2 °F 86% 29.78 in 10.0 mi WNW 12.7 mph 19.6 mph N/A   Overcast
3:55 PM 24.8 °F 12.9 °F 21.2 °F 86% 29.79 in 10.0 mi WNW 13.8 mph 17.3 mph N/A   Overcast
4:15 PM 24.8 °F 12.4 °F 21.2 °F 86% 29.81 in 10.0 mi West 15.0 mph - N/A   Mostly Cloudy
4:35 PM 24.8 °F 14.6 °F 19.4 °F 80% 29.82 in 10.0 mi West 10.4 mph - N/A   Mostly Cloudy
4:55 PM 24.8 °F 14.6 °F 21.2 °F 86% 29.83 in 10.0 mi WNW 10.4 mph 17.3 mph N/A   Mostly Cloudy
5:15 PM 24.8 °F 11.9 °F 19.4 °F 80% 29.85 in 10.0 mi NW 16.1 mph 21.9 mph N/A   Overcast
5:35 PM 26.6 °F 12.0 °F 19.4 °F 74% 29.87 in 10.0 mi NW 23.0 mph 31.1 mph N/A   Overcast
5:55 PM 24.8 °F 10.7 °F 19.4 °F 80% 29.88 in 10.0 mi NW 19.6 mph 28.8 mph N/A   Overcast
6:15 PM 24.8 °F 11.9 °F 19.4 °F 80% 29.90 in 10.0 mi NW 16.1 mph 26.5 mph N/A   Overcast
6:35 PM 24.8 °F 11.5 °F 19.4 °F 80% 29.91 in 10.0 mi NW 17.3 mph 24.2 mph N/A   Overcast
6:55 PM 24.8 °F 11.5 °F 19.4 °F 80% 29.91 in 10.0 mi NW 17.3 mph 28.8 mph N/A   Overcast
7:15 PM 24.8 °F 12.9 °F 17.6 °F 74% 29.92 in 10.0 mi WNW 13.8 mph 21.9 mph N/A   Overcast
7:35 PM 24.8 °F 10.7 °F 17.6 °F 74% 29.92 in 10.0 mi WNW 19.6 mph 27.6 mph N/A   Overcast
7:55 PM 24.8 °F 11.5 °F 19.4 °F 80% 29.93 in 10.0 mi WNW 17.3 mph 24.2 mph N/A   Overcast
8:35 PM 23.0 °F 8.7 °F 17.6 °F 80% 29.95 in 10.0 mi WNW 18.4 mph 25.3 mph N/A   Clear
8:55 PM 23.0 °F 9.2 °F 17.6 °F 80% 29.95 in 10.0 mi West 17.3 mph 24.2 mph N/A   Clear
9:15 PM 21.2 °F 6.8 °F 15.8 °F 80% 29.96 in 10.0 mi West 17.3 mph 24.2 mph N/A   Clear
9:35 PM 21.2 °F 6.4 °F 15.8 °F 80% 29.96 in 10.0 mi West 18.4 mph 25.3 mph N/A   Clear
9:55 PM 23.0 °F 9.2 °F 17.6 °F 80% 29.97 in 10.0 mi West 17.3 mph 24.2 mph N/A   Scattered Clouds
10:15 PM 23.0 °F 9.2 °F 17.6 °F 80% 29.97 in 10.0 mi West 17.3 mph 23.0 mph N/A   Overcast
10:35 PM 23.0 °F 9.6 °F 17.6 °F 80% 29.98 in 10.0 mi West 16.1 mph 19.6 mph N/A   Overcast
10:55 PM 23.0 °F 10.1 °F 17.6 °F 80% 29.98 in 10.0 mi West 15.0 mph 19.6 mph N/A   Overcast
11:15 PM 23.0 °F 10.1 °F 17.6 °F 80% 29.99 in 10.0 mi West 15.0 mph - N/A   Overcast
11:35 PM 23.0 °F 9.6 °F 17.6 °F 80% 29.99 in 10.0 mi West 16.1 mph 23.0 mph N/A   Overcast
11:55 PM 23.0 °F 11.7 °F 17.6 °F 80% 30.00 in 10.0 mi West 11.5 mph - N/A   Overcast